Location: Austin
(30.3000°N, 97.7500°W)
Time: 03:28:22
(UTC-05:00)

ISS - Pass Details

Date: 01 October 2024
Orbit: 412 x 425 km, 51.6° (Epoch: 07 October)

Event Time Altitude Azimuth Distance (km) Brightness Sun altitude
Rises 20:43:03 0° 313° (NW) 2,366 0.9 -19.7°
Reaches altitude 10° 20:45:09 10° 311° (NW) 1,502 -0.2 -20.1°
Maximum altitude 20:48:30 70° 228° (SW) 450 -3.6 -20.9°
Enters shadow 20:48:34 70° 218° (SW) 451 -3.6 -20.9°
